Вернуться в каталог

STARLINK-38188

АктивенСвязьSSO
NORAD 100233·PAYLOAD·🇺🇸 United States

Запущен Aug 4, 2026 с Vandenberg Space Force Base

Loading…

Ближайшие Пролёты (ближайшие 24 часа)

TLE

СвежийSource: Space-Track

Эпоха: Sep 14, 2026, 21:32 UTC

1 A0233U 26177W   26257.89774133  .00053520  00000-0  97805-3 0  9992
2 A0233  97.2830 308.6486 0001484 100.0525 260.0894 15.49218046  6492

Отслеживайте STARLINK-38188 в реальном времени с AllMySat

Download on the App Store